Location: Helion Bumpstead
(52.0500°N, 0.4000°E)
Time: 21:00:38
(UTC+00:00)

PAYLOAD A - Pass Details

Date: 15 November 2025
Orbit: 690 x 828 km, 98.6° (Epoch: 06 December)

Event Time Altitude Azimuth Distance (km) Brightness Sun altitude
Rises 04:34:50 0° 14° (NNE) 3,375 7.5 -24.9°
Reaches altitude 10° 04:37:13 10° 14° (NNE) 2,429 6.7 -24.6°
Maximum altitude 04:42:37 81° 288° (WNW) 823 3.9 -23.7°
Enters shadow 04:45:42 26° 204° (SSW) 1,543 5.3 -23.3°
